Date String (YYYY-MM-DD hh:mm:ss) UTC,Instrument flags,Ambient pressure (hPa),Sample flow (lpm),Bypass flow (lpm),Sample temperature (°C),Ambient temperature (°C),ASC tube jacket temperature (°C),LED temperature (°C),Box temperature (°C),Sample RH (%),Span deviation,Mass concentration (μg/m³),Mass concentration (μg/m³),Mass concentration (μg/m³)
DateTimeUTC,F1_M11,P_M11,Q1_M11,Q2_M11,T1_M11,T2_M11,T3_M11,T4_M11,T5_M11,U1_M11,ZSPAN_M11,X0_M11,X2_M11,X1_M11
2022-06-29 16:00:00,,0829.5,5.00,0.00,29.3,28.1,00.0,38.1,31.3,17.0,0000.0,0009.99,0004.08,0003.38
2022-06-29 16:01:00,,0829.5,5.01,0.00,29.4,28.2,00.0,38.1,31.3,17.8,0000.0,0010.21,0003.99,0003.32
2022-06-29 16:02:00,,0829.5,5.00,0.00,29.4,28.4,00.0,38.1,31.4,16.8,0000.0,0011.35,0003.95,0003.27
2022-06-29 16:03:00,,0829.5,4.99,0.00,29.4,28.2,00.0,38.1,31.3,16.3,0000.0,0012.42,0003.90,0003.20
2022-06-29 16:04:00,,0829.5,5.00,0.00,29.4,27.5,00.0,38.1,31.2,16.1,0000.0,0012.19,0003.86,0003.14
2022-06-29 16:05:00,,0829.5,4.99,0.00,29.3,27.3,00.0,38.1,31.1,16.6,0000.0,0011.42,0003.81,0003.05
2022-06-29 16:06:00,,0829.5,5.00,0.00,29.3,27.4,00.0,38.1,31.1,16.7,0000.0,0011.40,0003.78,0002.99
2022-06-29 16:07:00,,0829.5,5.00,0.00,29.3,27.5,00.0,38.1,31.1,16.9,0000.0,0011.17,0003.75,0002.88
2022-06-29 16:08:00,,0829.5,5.00,0.00,29.3,27.6,00.0,38.1,31.2,16.7,0000.0,0011.20,0003.72,0002.80
2022-06-29 16:09:00,,0829.5,5.00,0.00,29.3,27.8,00.0,38.1,31.2,16.7,0000.0,0011.30,0003.67,0002.76
2022-06-29 16:10:00,,0829.5,4.99,0.00,29.3,28.0,00.0,38.1,31.3,17.0,0000.0,0011.71,0003.69,0002.75
2022-06-29 16:11:00,,0829.5,5.00,0.00,29.3,28.1,00.0,38.1,31.3,17.3,0000.0,0013.37,0003.69,0002.73
2022-06-29 16:12:00,,0829.5,5.00,0.00,29.4,28.3,00.0,38.1,31.3,17.1,0000.0,0014.60,0003.72,0002.71
2022-06-29 16:13:00,,0829.5,5.00,0.00,29.4,27.9,00.0,38.1,31.3,16.9,0000.0,0013.42,0003.70,0002.71
2022-06-29 16:14:00,,0829.5,5.00,0.00,29.3,27.3,00.0,38.0,31.1,16.8,0000.0,0012.08,0003.67,0002.70
2022-06-29 16:15:00,,0829.5,5.00,0.00,29.3,27.2,00.0,38.0,31.1,17.1,0000.0,0011.92,0003.65,0002.70
2022-06-29 16:16:00,,0829.5,4.99,0.00,29.3,27.3,00.0,38.0,31.1,16.9,0000.0,0012.30,0003.65,0002.71
2022-06-29 16:17:00,,0829.5,5.00,0.00,29.2,27.5,00.0,38.0,31.1,17.1,0000.0,0012.50,0003.66,0002.70
2022-06-29 16:18:00,,0829.5,5.00,0.00,29.2,27.6,00.0,38.0,31.1,17.0,0000.0,0012.56,0003.61,0002.71
2022-06-29 16:19:00,,0829.5,5.01,0.00,29.3,27.8,00.0,38.0,31.2,16.9,0000.0,0012.64,0003.58,0002.71
2022-06-29 16:20:00,,0829.5,5.00,0.00,29.3,28.0,00.0,38.0,31.2,17.5,0000.0,0012.60,0003.60,0002.71
2022-06-29 16:21:00,,0829.5,4.99,0.00,29.3,28.2,00.0,38.1,31.3,16.9,0000.0,0012.32,0003.61,0002.73
2022-06-29 16:22:00,,0829.5,5.01,0.00,29.3,28.2,00.0,38.1,31.3,16.9,0000.0,0010.03,0003.54,0002.73
2022-06-29 16:23:00,,0829.5,5.00,0.00,29.3,27.6,00.0,38.0,31.1,16.5,0000.0,0008.55,0003.55,0002.75
2022-06-29 16:24:00,,0829.5,5.01,0.00,29.3,27.2,00.0,38.0,31.0,17.1,0000.0,0008.56,0003.58,0002.75
2022-06-29 16:25:00,,0829.5,4.99,0.00,29.2,27.3,00.0,38.0,31.0,17.2,0000.0,0008.65,0003.61,0002.76
2022-06-29 16:26:00,,0829.5,5.01,0.00,29.2,27.4,00.0,38.0,31.1,17.4,0000.0,0008.91,0003.66,0002.77
2022-06-29 16:27:00,,0829.5,5.00,0.00,29.2,27.6,00.0,38.0,31.1,16.9,0000.0,0009.00,0003.67,0002.77
2022-06-29 16:28:00,,0829.5,4.99,0.00,29.2,27.7,00.0,38.0,31.2,17.2,0000.0,0009.32,0003.65,0002.78
2022-06-29 16:29:00,,0829.5,5.00,0.00,29.3,27.9,00.0,38.0,31.2,17.0,0000.0,0009.25,0003.67,0002.80
2022-06-29 16:30:00,,0829.4,5.00,0.00,29.3,28.1,00.0,38.0,31.3,16.8,0000.0,0009.06,0003.68,0002.81
2022-06-29 16:31:00,,0829.4,5.00,0.00,29.3,28.2,00.0,38.0,31.3,17.3,0000.0,0009.67,0003.67,0002.83
2022-06-29 16:32:00,,0829.4,5.01,0.00,29.3,28.0,00.0,38.0,31.3,17.4,0000.0,0009.46,0003.66,0002.85
2022-06-29 16:33:00,,0829.5,5.01,0.00,29.3,27.5,00.0,38.0,31.1,17.2,0000.0,0009.60,0003.70,0002.87
2022-06-29 16:34:00,,0829.4,5.00,0.00,29.3,27.3,00.0,38.0,31.0,16.7,0000.0,0009.49,0003.68,0002.89
2022-06-29 16:35:00,,0829.3,5.00,0.00,29.2,27.4,00.0,38.0,31.1,16.9,0000.0,0009.78,0003.67,0002.90
2022-06-29 16:36:00,,0829.3,5.00,0.00,29.2,27.6,00.0,38.0,31.1,16.7,0000.0,0011.16,0003.67,0002.91
2022-06-29 16:37:00,,0829.3,4.98,0.00,29.2,27.7,00.0,38.0,31.1,16.8,0000.0,0011.24,0003.65,0002.92
2022-06-29 16:38:00,,0829.3,4.99,0.00,29.3,27.9,00.0,38.0,31.2,16.4,0000.0,0011.22,0003.67,0002.94
2022-06-29 16:39:00,,0829.3,5.01,0.00,29.3,28.1,00.0,38.0,31.3,16.4,0000.0,0010.56,0003.66,0002.95
2022-06-29 16:40:00,,0829.4,4.99,0.00,29.3,28.1,00.0,38.0,31.3,16.6,0000.0,0010.45,0003.67,0002.96
2022-06-29 16:41:00,,0829.4,4.99,0.00,29.3,27.6,00.0,38.0,31.1,16.4,0000.0,0010.62,0003.72,0002.98
2022-06-29 16:42:00,,0829.3,5.02,0.00,29.2,27.2,00.0,37.9,31.0,16.8,0000.0,0010.30,0003.74,0003.00
2022-06-29 16:43:00,,0829.3,5.01,0.00,29.2,27.3,00.0,37.9,31.0,17.0,0000.0,0010.28,0003.74,0002.99
2022-06-29 16:44:00,,0829.3,5.00,0.00,29.2,27.4,00.0,37.9,31.0,16.9,0000.0,0010.07,0003.73,0003.00
2022-06-29 16:45:00,,0829.2,4.99,0.00,29.2,27.5,00.0,38.0,31.1,16.7,0000.0,0010.07,0003.72,0003.01
2022-06-29 16:46:00,,0829.2,5.00,0.00,29.2,27.7,00.0,38.0,31.1,16.5,0000.0,0010.07,0003.70,0003.00
2022-06-29 16:47:00,,0829.3,5.00,0.00,29.2,27.9,00.0,38.0,31.2,16.6,0000.0,0008.91,0003.71,0002.99
2022-06-29 16:48:00,,0829.2,5.00,0.00,29.2,28.1,00.0,38.0,31.2,16.9,0000.0,0008.62,0003.70,0002.99
2022-06-29 16:49:00,,0829.2,4.99,0.00,29.3,28.2,00.0,38.0,31.3,16.8,0000.0,0008.14,0003.66,0002.99
2022-06-29 16:50:00,,0829.2,5.01,0.00,29.3,27.7,00.0,38.0,31.1,16.9,0000.0,0008.13,0003.62,0002.98
2022-06-29 16:51:00,,0829.2,5.01,0.00,29.2,27.3,00.0,37.9,31.0,16.8,0000.0,0008.13,0003.61,0002.98
2022-06-29 16:52:00,,0829.2,4.99,0.00,29.2,27.4,00.0,37.9,31.0,17.1,0000.0,0008.22,0003.60,0002.97
2022-06-29 16:53:00,,0829.2,5.00,0.00,29.2,27.5,00.0,37.9,31.0,17.2,0000.0,0008.56,0003.64,0002.97
2022-06-29 16:54:00,,0829.3,5.00,0.00,29.2,27.6,00.0,37.9,31.1,17.1,0000.0,0008.61,0003.64,0002.96
2022-06-29 16:55:00,,0829.3,5.00,0.00,29.2,27.8,00.0,38.0,31.1,16.5,0000.0,0009.23,0003.62,0002.95
2022-06-29 16:56:00,,0829.3,4.99,0.00,29.2,28.0,00.0,38.0,31.2,16.7,0000.0,0009.24,0003.62,0002.93
2022-06-29 16:57:00,,0829.3,5.00,0.00,29.3,28.2,00.0,38.0,31.3,17.5,0000.0,0008.99,0003.62,0002.93
2022-06-29 16:58:00,,0829.3,5.01,0.00,29.3,28.2,00.0,38.0,31.3,17.1,0000.0,0008.83,0003.59,0002.94
2022-06-29 16:59:00,,0829.2,4.99,0.00,29.3,27.8,00.0,38.0,31.2,17.2,0000.0,0009.34,0003.61,0002.93
